User: anonymous   Login
Location: Unspecified
(0.0000°N, 0.0000°E)
Time: 19:12:15
(UTC+02:00)
Language:

Centaur D-1AR AC-41 - Orbit

View from above orbital plane
View from above orbital plane
View from above satellite
View from above satellite

Ground track
Ground track

The orbit data is extracted from the following two-line orbital elements,

1 10976U 78068B   15244.67388314 -.00000115  00000-0  15203-3 0  9990
2 10976  21.8297  67.5186 7170881 218.2023 122.6541  2.22297185301695
Epoch (UTC): 01 September 2015 16:10:23
Eccentricity: 0.7170881
inclination: 21.8297°
perigee height: 638 km
apogee height: 36205 km
right ascension of ascending node: 67.5186°
argument of perigee: 218.2023°
revolutions per day: 2.22297185
mean anomaly at epoch: 122.6541°
orbit number at epoch: 30169

The dashed part of the orbit path shows where the satellite is in the earth's shadow,  

DLR